• In Netherlands
  • List of Countries
  • For 7 days
  • Water Temperature
  • Satellite Maps
  • Weather Map
  • Weather Widgets
  • user-avatar
    Login

    Hourly Weather Algiers

    Today, 21 November, Tuesday

    Time Temperature Precipitation Wind Pressure Humidity
    00:00 +15°C° 0 mm 1 mps 754 mmHg 42%
    01:00 +15°C° 0 mm 1 mps 754 mmHg 41%
    02:00 +15°C° 0 mm 1 mps 754 mmHg 41%
    03:00 +14°C° 0 mm 1 mps 753 mmHg 40%
    04:00 +14°C° 0 mm 1 mps 753 mmHg 40%
    05:00 +14°C° 0 mm 2 mps 753 mmHg 40%
    06:00 +14°C° 0 mm 1 mps 753 mmHg 41%
    07:00 +15°C° 0 mm 1 mps 754 mmHg 38%
    08:00 +18°C° 0 mm 1 mps 754 mmHg 35%
    09:00 +20°C° 0 mm 1 mps 754 mmHg 32%
    10:00 +21°C° 0 mm 1 mps 754 mmHg 29%
    11:00 +22°C° 0 mm 1 mps 753 mmHg 26%
    12:00 +22°C° 0 mm 0 mps 753 mmHg 23%
    13:00 +24°C° 0 mm 1 mps 753 mmHg 24%
    14:00 +23°C° 0 mm 1 mps 753 mmHg 25%
    15:00 +23°C° 0 mm 1 mps 752 mmHg 26%
    16:00 +21°C° 0 mm 1 mps 752 mmHg 31%
    17:00 +19°C° 0 mm 2 mps 752 mmHg 35%
    18:00 +17°C° 0 mm 2 mps 752 mmHg 40%
    19:00 +17°C° 0 mm 2 mps 752 mmHg 38%
    20:00 +16°C° 0 mm 2 mps 752 mmHg 37%
    21:00 +16°C° 0 mm 2 mps 752 mmHg 35%
    22:00 +16°C° 0 mm 2 mps 752 mmHg 33%
    23:00 +16°C° 0 mm 2 mps 752 mmHg 31%

    Tomorrow, 22 November, Wednesday

    Time Temperature Precipitation Wind Pressure Humidity
    00:00 +16°C° 0 mm 2 mps 752 mmHg 30%
    01:00 +15°C° 0 mm 2 mps 751 mmHg 30%
    02:00 +15°C° 0 mm 2 mps 751 mmHg 30%
    03:00 +15°C° 0 mm 2 mps 751 mmHg 30%
    04:00 +13°C° 0 mm 3 mps 751 mmHg 31%
    05:00 +13°C° 0 mm 3 mps 751 mmHg 32%
    06:00 +13°C° 0 mm 3 mps 751 mmHg 33%
    07:00 +14°C° 0 mm 3 mps 751 mmHg 32%
    08:00 +17°C° 0 mm 3 mps 751 mmHg 31%
    09:00 +18°C° 0 mm 3 mps 751 mmHg 30%
    10:00 +19°C° 0 mm 3 mps 750 mmHg 26%
    11:00 +21°C° 0 mm 2 mps 750 mmHg 22%
    12:00 +23°C° 0 mm 2 mps 750 mmHg 18%
    13:00 +23°C° 0 mm 2 mps 749 mmHg 18%
    14:00 +23°C° 0 mm 1 mps 749 mmHg 18%
    15:00 +23°C° 0 mm 1 mps 749 mmHg 19%
    16:00 +22°C° 0 mm 1 mps 749 mmHg 20%
    17:00 +19°C° 0 mm 2 mps 749 mmHg 22%
    18:00 +17°C° 0 mm 2 mps 749 mmHg 24%
    19:00 +17°C° 0 mm 2 mps 750 mmHg 25%
    20:00 +17°C° 0 mm 2 mps 750 mmHg 26%
    21:00 +16°C° 0 mm 2 mps 750 mmHg 26%
    22:00 +16°C° 0 mm 2 mps 750 mmHg 27%
    23:00 +16°C° 0 mm 3 mps 750 mmHg 28%

    Day after tomorrow, 23 November, Thursday

    Time Temperature Precipitation Wind Pressure Humidity
    00:00 +14°C° 0 mm 3 mps 750 mmHg 29%
    01:00 +14°C° 0 mm 3 mps 750 mmHg 30%
    02:00 +14°C° 0 mm 3 mps 750 mmHg 31%
    03:00 +13°C° 0 mm 3 mps 750 mmHg 32%
    04:00 +13°C° 0 mm 3 mps 750 mmHg 32%
    05:00 +13°C° 0 mm 3 mps 750 mmHg 32%
    06:00 +13°C° 0 mm 3 mps 750 mmHg 32%
    07:00 +14°C° 0 mm 3 mps 751 mmHg 31%
    08:00 +17°C° 0 mm 2 mps 751 mmHg 29%
    09:00 +18°C° 0 mm 2 mps 752 mmHg 27%
    10:00 +20°C° 0 mm 2 mps 752 mmHg 25%
    11:00 +21°C° 0 mm 2 mps 752 mmHg 22%
    12:00 +23°C° 0 mm 2 mps 752 mmHg 20%
    13:00 +23°C° 0 mm 2 mps 752 mmHg 21%
    14:00 +21°C° 0 mm 2 mps 752 mmHg 22%
    15:00 +21°C° 0 mm 2 mps 751 mmHg 23%
    16:00 +21°C° 0 mm 1 mps 752 mmHg 29%
    17:00 +19°C° 0 mm 1 mps 752 mmHg 35%
    18:00 +16°C° 0 mm 1 mps 752 mmHg 40%
    19:00 +16°C° 0 mm 1 mps 753 mmHg 40%
    20:00 +15°C° 0 mm 1 mps 753 mmHg 39%
    21:00 +15°C° 0 mm 2 mps 753 mmHg 39%
    22:00 +15°C° 0 mm 2 mps 753 mmHg 37%
    23:00 +15°C° 0 mm 2 mps 753 mmHg 35%

    24 November, Friday

    Time Temperature Precipitation Wind Pressure Humidity
    00:00 +15°C° 0 mm 2 mps 753 mmHg 34%
    01:00 +15°C° 0 mm 2 mps 753 mmHg 33%
    02:00 +14°C° 0 mm 2 mps 753 mmHg 32%
    03:00 +14°C° 0 mm 2 mps 752 mmHg 31%
    04:00 +14°C° 0 mm 2 mps 753 mmHg 31%
    05:00 +14°C° 0 mm 2 mps 753 mmHg 31%
    06:00 +14°C° 0 mm 2 mps 753 mmHg 31%
    07:00 +16°C° 0 mm 2 mps 753 mmHg 30%
    08:00 +17°C° 0 mm 2 mps 753 mmHg 28%
    09:00 +19°C° 0 mm 2 mps 753 mmHg 27%
    10:00 +20°C° 0 mm 2 mps 753 mmHg 24%
    11:00 +23°C° 0 mm 2 mps 753 mmHg 21%
    12:00 +24°C° 0 mm 2 mps 753 mmHg 18%
    13:00 +24°C° 0 mm 2 mps 752 mmHg 18%
    14:00 +24°C° 0 mm 2 mps 752 mmHg 19%
    15:00 +24°C° 0 mm 2 mps 752 mmHg 19%
    16:00 +21°C° 0 mm 2 mps 752 mmHg 22%
    17:00 +19°C° 0 mm 3 mps 752 mmHg 24%
    18:00 +18°C° 0 mm 3 mps 752 mmHg 27%
    19:00 +17°C° 0 mm 3 mps 752 mmHg 26%
    20:00 +17°C° 0 mm 3 mps 753 mmHg 25%
    21:00 +16°C° 0 mm 3 mps 753 mmHg 24%
    22:00 +16°C° 0 mm 3 mps 753 mmHg 25%
    23:00 +16°C° 0 mm 3 mps 752 mmHg 26%

    25 November, Saturday

    Time Temperature Precipitation Wind Pressure Humidity
    00:00 +14°C° 0 mm 3 mps 752 mmHg 27%
    01:00 +14°C° 0 mm 3 mps 752 mmHg 28%
    02:00 +14°C° 0 mm 3 mps 752 mmHg 30%
    03:00 +14°C° 0 mm 3 mps 752 mmHg 31%
    04:00 +14°C° 0 mm 3 mps 752 mmHg 31%
    05:00 +14°C° 0 mm 4 mps 752 mmHg 31%
    06:00 +13°C° 0 mm 4 mps 752 mmHg 31%
    07:00 +15°C° 0 mm 4 mps 752 mmHg 30%
    08:00 +17°C° 0 mm 3 mps 753 mmHg 29%
    09:00 +19°C° 0 mm 3 mps 753 mmHg 28%
    10:00 +20°C° 0 mm 3 mps 753 mmHg 25%
    11:00 +23°C° 0 mm 2 mps 753 mmHg 22%
    12:00 +25°C° 0 mm 2 mps 752 mmHg 19%
    13:00 +25°C° 0 mm 2 mps 752 mmHg 20%
    14:00 +25°C° 0 mm 2 mps 752 mmHg 20%
    15:00 +25°C° 0 mm 1 mps 752 mmHg 21%
    16:00 +23°C° 0 mm 2 mps 752 mmHg 23%
    17:00 +20°C° 0 mm 2 mps 752 mmHg 25%
    18:00 +18°C° 0 mm 3 mps 752 mmHg 27%
    19:00 +18°C° 0 mm 3 mps 753 mmHg 28%
    20:00 +17°C° 0 mm 3 mps 753 mmHg 28%
    21:00 +17°C° 0 mm 3 mps 753 mmHg 29%
    22:00 +17°C° 0 mm 3 mps 753 mmHg 32%
    23:00 +16°C° 0 mm 3 mps 753 mmHg 35%

    26 November, Sunday

    Time Temperature Precipitation Wind Pressure Humidity
    00:00 +16°C° 0 mm 3 mps 753 mmHg 38%
    01:00 +16°C° 0 mm 3 mps 753 mmHg 38%
    02:00 +16°C° 0 mm 3 mps 753 mmHg 39%
    03:00 +16°C° 0 mm 3 mps 753 mmHg 39%
    04:00 +16°C° 0 mm 3 mps 753 mmHg 39%
    05:00 +16°C° 0 mm 3 mps 753 mmHg 38%
    06:00 +16°C° 0 mm 3 mps 753 mmHg 38%
    07:00 +17°C° 0 mm 3 mps 753 mmHg 37%
    08:00 +17°C° 0 mm 3 mps 753 mmHg 37%
    09:00 +18°C° 0 mm 3 mps 754 mmHg 37%
    10:00 +20°C° 0 mm 2 mps 754 mmHg 33%
    11:00 +21°C° 0 mm 2 mps 753 mmHg 29%
    12:00 +24°C° 0 mm 2 mps 753 mmHg 25%
    13:00 +24°C° 0 mm 2 mps 753 mmHg 25%
    14:00 +24°C° 0 mm 1 mps 753 mmHg 24%
    15:00 +24°C° 0 mm 1 mps 753 mmHg 24%
    16:00 +22°C° 0 mm 1 mps 753 mmHg 29%
    17:00 +20°C° 0 mm 1 mps 754 mmHg 34%
    18:00 +18°C° 0 mm 1 mps 754 mmHg 39%
    19:00 +18°C° 0 mm 1 mps 754 mmHg 39%
    20:00 +18°C° 0 mm 1 mps 755 mmHg 39%
    21:00 +16°C° 0 mm 2 mps 755 mmHg 39%
    22:00 +16°C° 0 mm 2 mps 755 mmHg 40%
    23:00 +16°C° 0 mm 2 mps 755 mmHg 40%
    Show more